| time (UTC) | temp C | wind direction | speed KPH | gust KPH | rain 1hr cm | rain 24hr cm | rain mn cm | humidity % | barometer mb |
| 20260508145202 | 16 | 306 | 3.2 | 11.3 | 0.00 | 0.08 | 0.00 | 50 | 973.6 |
| 20260508144656 | 16 | 258 | 1.6 | 11.3 | 0.00 | 0.08 | 0.00 | 52 | 973.6 |
| 20260508144150 | 16 | 257 | 1.6 | 12.9 | 0.00 | 0.08 | 0.00 | 53 | 973.6 |
| 20260508143644 | 16 | 296 | 3.2 | 12.9 | 0.00 | 0.08 | 0.00 | 54 | 973.6 |
| 20260508143138 | 16 | 312 | 3.2 | 8.0 | 0.00 | 0.08 | 0.00 | 57 | 973.6 |
| 20260508142632 | 16 | 58 | 1.6 | 6.4 | 0.00 | 0.08 | 0.00 | 57 | 973.6 |
| 20260508142126 | 16 | 355 | 1.6 | 8.0 | 0.00 | 0.08 | 0.00 | 58 | 973.6 |
| 20260508141620 | 15 | 342 | 1.6 | 8.0 | 0.00 | 0.08 | 0.00 | 58 | 973.6 |
| 20260508141114 | 16 | 342 | 0.0 | 6.4 | 0.00 | 0.08 | 0.00 | 59 | 973.5 |
| 20260508140608 | 15 | 342 | 0.0 | 4.8 | 0.00 | 0.08 | 0.00 | 60 | 973.5 |
| 20260508135556 | 15 | 342 | 0.0 | 3.2 | 0.00 | 0.08 | 0.00 | 65 | 973.5 |
| 20260508135049 | 15 | 342 | 0.0 | 3.2 | 0.00 | 0.08 | 0.00 | 69 | 973.5 |
| 20260508134544 | 15 | 342 | 0.0 | 0.0 | 0.00 | 0.08 | 0.00 | 70 | 973.6 |
| 20260508134038 | 14 | 342 | 0.0 | 4.8 | 0.00 | 0.08 | 0.00 | 72 | 973.5 |
| 20260508133531 | 13 | 342 | 1.6 | 6.4 | 0.00 | 0.08 | 0.00 | 74 | 973.4 |
| 20260508133027 | 13 | 342 | 1.6 | 6.4 | 0.00 | 0.08 | 0.00 | 77 | 973.3 |
| 20260508132520 | 13 | 342 | 1.6 | 6.4 | 0.00 | 0.08 | 0.00 | 80 | 973.3 |
| 20260508132014 | 12 | 342 | 0.0 | 4.8 | 0.00 | 0.08 | 0.00 | 85 | 973.3 |
| 20260508131508 | 12 | 42 | 0.0 | 3.2 | 0.00 | 0.08 | 0.00 | 89 | 973.3 |
| 20260508131002 | 11 | 42 | 0.0 | 0.0 | 0.00 | 0.08 | 0.00 | 93 | 973.3 |
| 20260508130456 | 11 | 42 | 0.0 | 0.0 | 0.00 | 0.08 | 0.00 | 92 | 973.3 |
| 20260508125950 | 11 | 42 | 0.0 | 0.0 | 0.00 | 0.08 | 0.00 | 91 | 973.3 |
| 20260508125444 | 10 | 42 | 0.0 | 0.0 | 0.00 | 0.08 | 0.00 | 90 | 973.3 |
| 20260508124938 | 10 | 42 | 0.0 | 0.0 | 0.00 | 0.08 | 0.00 | 89 | 973.3 |
| 20260508123420 | 8 | 42 | 0.0 | 0.0 | 0.00 | 0.10 | 0.00 | 89 | 973.3 |
| 20260508122914 | 8 | 42 | 0.0 | 0.0 | 0.00 | 0.10 | 0.00 | 90 | 973.2 |
| 20260508122408 | 8 | 42 | 0.0 | 0.0 | 0.00 | 0.10 | 0.00 | 90 | 973.1 |
| 20260508121902 | 7 | 42 | 0.0 | 0.0 | 0.00 | 0.13 | 0.00 | 90 | 973.1 |
| 20260508121356 | 7 | 42 | 0.0 | 0.0 | 0.00 | 0.15 | 0.00 | 90 | 973.1 |
| 20260508120850 | 6 | 42 | 0.0 | 0.0 | 0.00 | 0.15 | 0.00 | 90 | 972.9 |
| 20260508120344 | 6 | 42 | 0.0 | 0.0 | 0.00 | 0.18 | 0.00 | 90 | 972.9 |
| 20260508115838 | 6 | 42 | 0.0 | 0.0 | 0.00 | 0.23 | 0.00 | 90 | 972.9 |
| 20260508115331 | 6 | 42 | 0.0 | 0.0 | 0.00 | 0.25 | 0.00 | 90 | 972.8 |
| 20260508114825 | 6 | 42 | 0.0 | 0.0 | 0.00 | 0.28 | 0.00 | 91 | 972.7 |
| 20260508114319 | 6 | 42 | 0.0 | 0.0 | 0.00 | 0.30 | 0.00 | 91 | 972.6 |
| 20260508113308 | 5 | 42 | 0.0 | 0.0 | 0.00 | 0.33 | 0.00 | 91 | 972.5 |
| 20260508112801 | 5 | 42 | 0.0 | 0.0 | 0.00 | 0.36 | 0.00 | 91 | 972.4 |
| 20260508112255 | 5 | 42 | 0.0 | 0.0 | 0.00 | 0.36 | 0.00 | 91 | 972.3 |
| 20260508111749 | 4 | 42 | 0.0 | 0.0 | 0.00 | 0.41 | 0.00 | 91 | 972.3 |
| 20260508111245 | 4 | 42 | 0.0 | 0.0 | 0.00 | 0.41 | 0.00 | 91 | 972.3 |
| 20260508110738 | 4 | 42 | 0.0 | 0.0 | 0.00 | 0.43 | 0.00 | 91 | 972.2 |
| 20260508110232 | 4 | 42 | 0.0 | 0.0 | 0.00 | 0.43 | 0.00 | 91 | 972.2 |
| 20260508105726 | 4 | 42 | 0.0 | 0.0 | 0.00 | 0.43 | 0.00 | 91 | 972.1 |
| 20260508104714 | 4 | 42 | 0.0 | 0.0 | 0.00 | 0.43 | 0.00 | 91 | 972.0 |
| 20260508104208 | 4 | 42 | 0.0 | 0.0 | 0.00 | 0.43 | 0.00 | 91 | 971.7 |
| 20260508103702 | 4 | 42 | 0.0 | 0.0 | 0.00 | 0.43 | 0.00 | 91 | 971.6 |
| 20260508103156 | 4 | 42 | 0.0 | 0.0 | 0.00 | 0.43 | 0.00 | 92 | 971.5 |
| 20260508102650 | 4 | 42 | 0.0 | 0.0 | 0.00 | 0.43 | 0.00 | 91 | 971.5 |
| 20260508102144 | 4 | 42 | 0.0 | 0.0 | 0.00 | 0.43 | 0.00 | 91 | 971.5 |
| 20260508101638 | 4 | 42 | 0.0 | 0.0 | 0.00 | 0.43 | 0.00 | 91 | 971.4 |
| 20260508101132 | 4 | 42 | 0.0 | 0.0 | 0.00 | 0.43 | 0.00 | 91 | 971.4 |
| 20260508100626 | 4 | 42 | 0.0 | 0.0 | 0.00 | 0.43 | 0.00 | 91 | 971.3 |
| 20260508100122 | 4 | 42 | 0.0 | 0.0 | 0.00 | 0.43 | 0.00 | 91 | 971.3 |
| 20260508095622 | 4 | 42 | 0.0 | 0.0 | 0.00 | 0.43 | 0.00 | 91 | 971.2 |
| 20260508095119 | 4 | 42 | 0.0 | 0.0 | 0.00 | 0.43 | 0.00 | 92 | 971.2 |
| 20260508094118 | 4 | 42 | 0.0 | 0.0 | 0.00 | 0.43 | 0.00 | 92 | 971.1 |
| 20260508093617 | 4 | 42 | 0.0 | 0.0 | 0.00 | 0.43 | 0.00 | 92 | 971.1 |
| 20260508093117 | 4 | 42 | 0.0 | 0.0 | 0.00 | 0.43 | 0.00 | 92 | 971.1 |
| 20260508092615 | 5 | 42 | 0.0 | 0.0 | 0.00 | 0.43 | 0.00 | 92 | 971.0 |
| 20260508092114 | 5 | 42 | 0.0 | 0.0 | 0.00 | 0.43 | 0.00 | 92 | 971.0 |
| 20260508091614 | 5 | 42 | 0.0 | 0.0 | 0.00 | 0.43 | 0.00 | 92 | 971.0 |
| 20260508091112 | 5 | 42 | 0.0 | 0.0 | 0.00 | 0.43 | 0.00 | 92 | 971.0 |
| 20260508090611 | 5 | 42 | 0.0 | 0.0 | 0.00 | 0.43 | 0.00 | 92 | 970.9 |
| 20260508090112 | 5 | 42 | 0.0 | 0.0 | 0.00 | 0.43 | 0.00 | 92 | 970.8 |
| 20260508085610 | 5 | 42 | 0.0 | 0.0 | 0.00 | 0.43 | 0.00 | 92 | 970.8 |
| 20260508085107 | 5 | 42 | 0.0 | 1.6 | 0.00 | 0.43 | 0.00 | 92 | 970.7 |
| 20260508084608 | 5 | 42 | 0.0 | 1.6 | 0.00 | 0.43 | 0.00 | 92 | 970.7 |
| 20260508084110 | 5 | 42 | 0.0 | 0.0 | 0.00 | 0.43 | 0.00 | 92 | 970.8 |
| 20260508083603 | 5 | 42 | 0.0 | 0.0 | 0.00 | 0.43 | 0.00 | 92 | 970.8 |
| 20260508083104 | 5 | 42 | 0.0 | 0.0 | 0.00 | 0.43 | 0.00 | 92 | 970.8 |
| 20260508082603 | 5 | 42 | 0.0 | 0.0 | 0.00 | 0.43 | 0.00 | 92 | 970.7 |
| 20260508082103 | 5 | 42 | 0.0 | 0.0 | 0.00 | 0.43 | 0.00 | 92 | 970.6 |
| 20260508081602 | 5 | 42 | 0.0 | 0.0 | 0.00 | 0.43 | 0.00 | 92 | 970.6 |
| 20260508081102 | 5 | 42 | 0.0 | 0.0 | 0.00 | 0.43 | 0.00 | 92 | 970.6 |
| 20260508080602 | 5 | 42 | 0.0 | 0.0 | 0.00 | 0.43 | 0.00 | 92 | 970.5 |
| 20260508080101 | 5 | 42 | 0.0 | 0.0 | 0.00 | 0.43 | 0.00 | 92 | 970.5 |
| 20260508075602 | 5 | 42 | 0.0 | 0.0 | 0.00 | 0.43 | 0.00 | 92 | 970.5 |
| 20260508075101 | 5 | 42 | 0.0 | 0.0 | 0.00 | 0.43 | 0.00 | 92 | 970.4 |
| 20260508074056 | 5 | 42 | 0.0 | 0.0 | 0.00 | 0.43 | 0.00 | 92 | 970.4 |
| 20260508073553 | 6 | 42 | 0.0 | 0.0 | 0.00 | 0.43 | 0.00 | 92 | 970.4 |
| 20260508073055 | 6 | 42 | 0.0 | 0.0 | 0.00 | 0.43 | 0.00 | 92 | 970.4 |
| 20260508072054 | 6 | 42 | 0.0 | 0.0 | 0.00 | 0.43 | 0.00 | 92 | 970.3 |
| 20260508071553 | 6 | 42 | 0.0 | 0.0 | 0.00 | 0.43 | 0.00 | 92 | 970.3 |
| 20260508071054 | 6 | 42 | 0.0 | 0.0 | 0.00 | 0.43 | 0.00 | 92 | 970.4 |
| 20260508070553 | 6 | 42 | 0.0 | 0.0 | 0.00 | 0.43 | 0.00 | 92 | 970.3 |
| 20260508070054 | 6 | 42 | 0.0 | 0.0 | 0.00 | 0.43 | 0.00 | 92 | 970.2 |
| 20260508065554 | 6 | 42 | 0.0 | 0.0 | 0.00 | 0.46 | 0.00 | 92 | 970.3 |
| 20260508064553 | 6 | 42 | 0.0 | 0.0 | 0.00 | 0.46 | 0.00 | 92 | 970.1 |
| 20260508064053 | 6 | 42 | 0.0 | 0.0 | 0.00 | 0.48 | 0.00 | 92 | 970.1 |
| 20260508063554 | 6 | 42 | 1.6 | 4.8 | 0.00 | 0.51 | 0.00 | 92 | 970.1 |
| 20260508063054 | 6 | 42 | 0.0 | 4.8 | 0.00 | 0.51 | 0.00 | 93 | 970.1 |
| 20260508062553 | 6 | 44 | 0.0 | 0.0 | 0.00 | 0.51 | 0.00 | 92 | 970.0 |
| 20260508062054 | 6 | 44 | 0.0 | 0.0 | 0.00 | 0.51 | 0.00 | 92 | 970.0 |
| 20260508060053 | 6 | 44 | 0.0 | 0.0 | 0.00 | 0.51 | 0.00 | 93 | 970.2 |
| 20260508055554 | 6 | 44 | 0.0 | 0.0 | 0.00 | 0.51 | 0.00 | 93 | 970.0 |
| 20260508055053 | 6 | 44 | 0.0 | 0.0 | 0.00 | 0.51 | 0.00 | 93 | 970.0 |
| 20260508054052 | 6 | 44 | 0.0 | 0.0 | 0.00 | 0.51 | 0.00 | 93 | 970.0 |
| 20260508053551 | 6 | 44 | 0.0 | 0.0 | 0.00 | 0.51 | 0.00 | 93 | 970.0 |
| 20260508053048 | 6 | 44 | 0.0 | 0.0 | 0.00 | 0.51 | 0.00 | 93 | 969.9 |
| 20260508052546 | 7 | 44 | 0.0 | 0.0 | 0.00 | 0.53 | 0.00 | 93 | 969.9 |
| 20260508052045 | 7 | 44 | 0.0 | 0.0 | 0.00 | 0.56 | 0.00 | 93 | 969.8 |
| 20260508051546 | 7 | 44 | 0.0 | 0.0 | 0.00 | 0.58 | 0.00 | 93 | 969.9 |
| 20260508051046 | 7 | 44 | 0.0 | 0.0 | 0.00 | 0.58 | 0.00 | 93 | 969.8 |
| 20260508050546 | 7 | 44 | 0.0 | 0.0 | 0.00 | 0.58 | 0.00 | 93 | 969.7 |
| 20260508050043 | 7 | 44 | 0.0 | 0.0 | 0.00 | 0.58 | 0.00 | 93 | 969.7 |
| 20260508045543 | 7 | 44 | 0.0 | 0.0 | 0.00 | 0.58 | 0.00 | 93 | 969.7 |
| 20260508045044 | 7 | 44 | 0.0 | 0.0 | 0.00 | 0.58 | 0.00 | 93 | 969.6 |
| 20260508044539 | 7 | 44 | 0.0 | 0.0 | 0.00 | 0.58 | 0.00 | 93 | 969.6 |
| 20260508044040 | 7 | 44 | 0.0 | 0.0 | 0.00 | 0.61 | 0.00 | 93 | 969.6 |
| 20260508043537 | 7 | 44 | 0.0 | 0.0 | 0.00 | 0.61 | 0.00 | 93 | 969.6 |
| 20260508043035 | 7 | 44 | 0.0 | 0.0 | 0.00 | 0.66 | 0.00 | 93 | 969.7 |
| 20260508042533 | 7 | 44 | 0.0 | 0.0 | 0.00 | 0.66 | 0.00 | 93 | 969.7 |
| 20260508042031 | 7 | 44 | 0.0 | 0.0 | 0.00 | 0.69 | 0.00 | 93 | 969.6 |
| 20260508041529 | 7 | 44 | 0.0 | 0.0 | 0.00 | 0.69 | 0.00 | 93 | 969.5 |
| 20260508041027 | 7 | 44 | 0.0 | 0.0 | 0.00 | 0.69 | 0.00 | 93 | 969.5 |
| 20260508040526 | 7 | 44 | 0.0 | 0.0 | 0.00 | 0.69 | 0.00 | 93 | 969.5 |
| 20260508035520 | 8 | 44 | 0.0 | 0.0 | 0.00 | 0.69 | 0.69 | 93 | 969.5 |
| 20260508034521 | 8 | 44 | 0.0 | 0.0 | 0.00 | 0.69 | 0.69 | 94 | 969.5 |
| 20260508034020 | 8 | 44 | 0.0 | 0.0 | 0.00 | 0.69 | 0.69 | 94 | 969.4 |
| 20260508033519 | 8 | 44 | 0.0 | 0.0 | 0.00 | 0.69 | 0.69 | 94 | 969.4 |
| 20260508033020 | 8 | 44 | 0.0 | 0.0 | 0.00 | 0.69 | 0.69 | 93 | 969.4 |
| 20260508032019 | 8 | 44 | 0.0 | 4.8 | 0.00 | 0.69 | 0.69 | 93 | 969.4 |
| 20260508031520 | 8 | 44 | 0.0 | 3.2 | 0.00 | 0.69 | 0.69 | 93 | 969.4 |
| 20260508031020 | 8 | 44 | 0.0 | 4.8 | 0.00 | 0.69 | 0.69 | 93 | 969.3 |
| 20260508030018 | 8 | 0 | 0.0 | 0.0 | 0.00 | 0.69 | 0.69 | 92 | 969.3 |
| 20260508025516 | 9 | 0 | 0.0 | 0.0 | 0.00 | 0.69 | 0.69 | 92 | 969.1 |
| 20260508025013 | 9 | 0 | 0.0 | 0.0 | 0.00 | 0.71 | 0.69 | 91 | 969.1 |
| 20260508024512 | 9 | 0 | 0.0 | 3.2 | 0.00 | 0.71 | 0.69 | 91 | 969.1 |
| 20260508024010 | 9 | 0 | 1.6 | 3.2 | 0.00 | 0.74 | 0.69 | 91 | 968.9 |
| 20260508023008 | 10 | 0 | 0.0 | 4.8 | 0.00 | 0.74 | 0.69 | 91 | 968.9 |
| 20260508022507 | 10 | 0 | 0.0 | 0.0 | 0.00 | 0.76 | 0.69 | 90 | 968.8 |
| 20260508021506 | 10 | 0 | 1.6 | 4.8 | 0.00 | 0.79 | 0.69 | 89 | 968.7 |
| 20260508021009 | 10 | 0 | 1.6 | 4.8 | 0.00 | 0.79 | 0.69 | 88 | 968.6 |
| 20260508020005 | 10 | 0 | 0.0 | 0.0 | 0.00 | 0.81 | 0.69 | 88 | 968.4 |
| 20260508015503 | 11 | 0 | 1.6 | 4.8 | 0.00 | 0.81 | 0.69 | 87 | 968.2 |
| 20260508014956 | 11 | 0 | 3.2 | 4.8 | 0.00 | 0.81 | 0.69 | 86 | 968.2 |
| 20260508014451 | 11 | 0 | 3.2 | 4.8 | 0.00 | 0.81 | 0.69 | 85 | 968.1 |
| 20260508013944 | 11 | 0 | 3.2 | 4.8 | 0.00 | 0.84 | 0.69 | 85 | 968.0 |
| 20260508013440 | 11 | 0 | 3.2 | 4.8 | 0.00 | 0.84 | 0.69 | 84 | 967.9 |
| 20260508012933 | 11 | 0 | 3.2 | 4.8 | 0.00 | 0.84 | 0.69 | 83 | 967.9 |
| 20260508012427 | 12 | 0 | 1.6 | 4.8 | 0.00 | 0.84 | 0.69 | 83 | 967.7 |
| 20260508011920 | 12 | 0 | 0.0 | 3.2 | 0.00 | 0.84 | 0.69 | 81 | 967.6 |
| 20260508010909 | 13 | 0 | 0.0 | 0.0 | 0.00 | 0.84 | 0.69 | 78 | 967.5 |
| 20260508005856 | 14 | 0 | 0.0 | 0.0 | 0.00 | 0.86 | 0.69 | 72 | 967.3 |
| 20260508005351 | 14 | 0 | 0.0 | 8.0 | 0.00 | 0.89 | 0.69 | 71 | 967.2 |
| 20260508004338 | 14 | 30 | 1.6 | 12.9 | 0.00 | 0.89 | 0.69 | 70 | 967.3 |
| 20260508003833 | 15 | 36 | 1.6 | 12.9 | 0.00 | 0.91 | 0.69 | 69 | 967.1 |
| 20260508003326 | 15 | 28 | 1.6 | 9.7 | 0.00 | 0.91 | 0.69 | 69 | 967.1 |
| 20260508002314 | 15 | 31 | 4.8 | 19.3 | 0.00 | 0.91 | 0.69 | 69 | 967.0 |
| 20260508001808 | 15 | 335 | 3.2 | 19.3 | 0.00 | 0.91 | 0.69 | 72 | 967.1 |
| 20260508001302 | 15 | 355 | 4.8 | 14.5 | 0.03 | 0.94 | 0.69 | 70 | 967.1 |
| 20260508000756 | 15 | 297 | 6.4 | 16.1 | 0.03 | 0.97 | 0.69 | 69 | 967.2 |
| 20260507235744 | 16 | 292 | 8.0 | 25.7 | 0.03 | 0.99 | 0.69 | 68 | 967.1 |
| 20260507235238 | 16 | 342 | 8.0 | 25.7 | 0.03 | 0.99 | 0.69 | 69 | 967.1 |
| 20260507234734 | 16 | 319 | 6.4 | 25.7 | 0.03 | 0.99 | 0.69 | 69 | 967.0 |
| 20260507233721 | 16 | 349 | 8.0 | 25.7 | 0.03 | 0.99 | 0.69 | 71 | 966.9 |
| 20260507232709 | 17 | 317 | 11.3 | 29.0 | 0.03 | 1.02 | 0.69 | 70 | 966.8 |
| 20260507232203 | 17 | 32 | 11.3 | 29.0 | 0.03 | 1.02 | 0.69 | 69 | 966.6 |
| 20260507231657 | 18 | 33 | 9.7 | 22.5 | 0.00 | 0.99 | 0.66 | 70 | 966.5 |
| 20260507231151 | 18 | 294 | 6.4 | 14.5 | 0.00 | 0.99 | 0.66 | 73 | 966.4 |
| 20260507230644 | 17 | 355 | 4.8 | 16.1 | 0.00 | 0.99 | 0.66 | 75 | 966.3 |
| 20260507230139 | 17 | 12 | 4.8 | 19.3 | 0.00 | 0.99 | 0.66 | 75 | 966.2 |
| 20260507225634 | 17 | 5 | 4.8 | 19.3 | 0.00 | 0.99 | 0.66 | 76 | 966.1 |
| 20260507225127 | 18 | 346 | 1.6 | 16.1 | 0.00 | 0.99 | 0.66 | 77 | 965.9 |
| 20260507224621 | 18 | 17 | 0.0 | 1.6 | 0.00 | 0.99 | 0.66 | 86 | 965.8 |
| 20260507223609 | 18 | 32 | 0.0 | 3.2 | 0.00 | 0.99 | 0.66 | 88 | 965.7 |
| 20260507222050 | 18 | 76 | 4.8 | 12.9 | 0.00 | 0.99 | 0.66 | 89 | 965.4 |
| 20260507221544 | 18 | 55 | 4.8 | 14.5 | 0.00 | 0.99 | 0.66 | 89 | 965.3 |
| 20260507221038 | 18 | 79 | 4.8 | 16.1 | 0.00 | 0.99 | 0.66 | 89 | 965.1 |
| 20260507220027 | 17 | 74 | 3.2 | 9.7 | 0.00 | 0.99 | 0.66 | 91 | 965.1 |
| 20260507215521 | 17 | 70 | 4.8 | 12.9 | 0.00 | 0.99 | 0.66 | 91 | 964.9 |
| 20260507215014 | 17 | 95 | 6.4 | 16.1 | 0.00 | 0.99 | 0.66 | 91 | 965.0 |
| 20260507214508 | 17 | 49 | 6.4 | 16.1 | 0.00 | 0.99 | 0.66 | 91 | 965.1 |
| 20260507214002 | 17 | 45 | 6.4 | 19.3 | 0.00 | 0.99 | 0.66 | 91 | 965.1 |
| 20260507213457 | 17 | 92 | 3.2 | 19.3 | 0.00 | 0.99 | 0.66 | 91 | 965.0 |
| 20260507212951 | 17 | 55 | 1.6 | 16.1 | 0.00 | 0.99 | 0.66 | 91 | 964.8 |
| 20260507212444 | 17 | 127 | 3.2 | 11.3 | 0.00 | 0.99 | 0.66 | 91 | 964.6 |
| 20260507211939 | 17 | 147 | 3.2 | 11.3 | 0.00 | 0.99 | 0.66 | 92 | 964.7 |
| 20260507211432 | 17 | 77 | 4.8 | 16.1 | 0.00 | 0.99 | 0.66 | 91 | 964.7 |
| 20260507210421 | 17 | 74 | 8.0 | 17.7 | 0.00 | 0.99 | 0.66 | 91 | 964.5 |
| 20260507205915 | 17 | 65 | 8.0 | 17.7 | 0.00 | 0.99 | 0.66 | 91 | 964.4 |
| 20260507205409 | 17 | 84 | 6.4 | 20.9 | 0.00 | 0.99 | 0.66 | 90 | 964.5 |
| 20260507204357 | 17 | 47 | 9.7 | 19.3 | 0.00 | 0.99 | 0.66 | 90 | 964.2 |
| 20260507203345 | 18 | 118 | 9.7 | 25.7 | 0.00 | 0.99 | 0.66 | 89 | 964.0 |
| 20260507202843 | 18 | 60 | 11.3 | 24.1 | 0.00 | 0.99 | 0.66 | 88 | 963.9 |
| 20260507202343 | 19 | 88 | 12.9 | 29.0 | 0.00 | 0.99 | 0.66 | 89 | 964.0 |
| 20260507201843 | 18 | 72 | 12.9 | 29.0 | 0.00 | 0.99 | 0.66 | 89 | 963.9 |
| 20260507201343 | 18 | 88 | 12.9 | 20.9 | 0.00 | 0.99 | 0.66 | 89 | 963.8 |
| 20260507200345 | 19 | 82 | 11.3 | 22.5 | 0.00 | 0.99 | 0.66 | 91 | 963.8 |
| 20260507195842 | 18 | 82 | 12.9 | 22.5 | 0.00 | 0.99 | 0.66 | 91 | 963.8 |
| 20260507195343 | 18 | 71 | 14.5 | 24.1 | 0.00 | 0.99 | 0.66 | 91 | 963.6 |
| 20260507194843 | 18 | 45 | 14.5 | 24.1 | 0.03 | 0.99 | 0.66 | 90 | 963.6 |
| 20260507193843 | 18 | 84 | 12.9 | 29.0 | 0.05 | 0.99 | 0.66 | 92 | 963.7 |
| 20260507193343 | 18 | 82 | 11.3 | 22.5 | 0.05 | 0.99 | 0.66 | 92 | 963.7 |
| 20260507192843 | 18 | 89 | 12.9 | 24.1 | 0.05 | 0.99 | 0.66 | 93 | 963.8 |
| 20260507192343 | 18 | 80 | 14.5 | 24.1 | 0.05 | 0.99 | 0.66 | 92 | 963.9 |
| 20260507191343 | 20 | 24 | 8.0 | 20.9 | 0.05 | 0.99 | 0.66 | 88 | 964.0 |
| 20260507190337 | 21 | 158 | 0.0 | 0.0 | 0.05 | 0.99 | 0.66 | 92 | 963.9 |
| 20260507185837 | 21 | 165 | 0.0 | 0.0 | 0.05 | 0.99 | 0.66 | 91 | 963.6 |
| 20260507185337 | 21 | 165 | 0.0 | 0.0 | 0.05 | 0.99 | 0.66 | 91 | 963.6 |
| 20260507184835 | 21 | 165 | 0.0 | 3.2 | 0.03 | 0.97 | 0.64 | 90 | 963.4 |
| 20260507184335 | 21 | 165 | 1.6 | 6.4 | 0.03 | 0.97 | 0.64 | 88 | 963.5 |
| 20260507183837 | 22 | 165 | 1.6 | 11.3 | 0.00 | 0.94 | 0.61 | 84 | 963.4 |
| 20260507183333 | 22 | 165 | 1.6 | 11.3 | 0.00 | 0.94 | 0.61 | 84 | 963.8 |
| 20260507182833 | 22 | 216 | 0.0 | 6.4 | 0.00 | 0.94 | 0.61 | 82 | 963.7 |
| 20260507182331 | 22 | 216 | 1.6 | 9.7 | 0.00 | 0.94 | 0.61 | 82 | 963.6 |
| 20260507181830 | 22 | 216 | 3.2 | 14.5 | 0.00 | 0.94 | 0.61 | 82 | 963.7 |
| 20260507181330 | 22 | 209 | 3.2 | 16.1 | 0.00 | 0.94 | 0.61 | 82 | 963.7 |
| 20260507180829 | 22 | 188 | 3.2 | 16.1 | 0.00 | 0.94 | 0.61 | 81 | 963.6 |
| 20260507180328 | 22 | 229 | 1.6 | 9.7 | 0.00 | 0.94 | 0.61 | 82 | 963.5 |
| 20260507175329 | 22 | 126 | 3.2 | 12.9 | 0.00 | 0.94 | 0.61 | 83 | 963.7 |
| 20260507174324 | 22 | 238 | 3.2 | 17.7 | 0.00 | 0.94 | 0.61 | 81 | 963.7 |
| 20260507173824 | 23 | 236 | 3.2 | 17.7 | 0.00 | 0.94 | 0.61 | 81 | 963.7 |
| 20260507173325 | 22 | 201 | 3.2 | 11.3 | 0.00 | 0.94 | 0.61 | 83 | 963.7 |
| 20260507172824 | 22 | 217 | 3.2 | 12.9 | 0.00 | 0.94 | 0.61 | 81 | 963.7 |
| 20260507172324 | 22 | 310 | 3.2 | 12.9 | 0.00 | 0.94 | 0.61 | 81 | 963.9 |
| 20260507171326 | 22 | 222 | 1.6 | 9.7 | 0.00 | 0.94 | 0.61 | 85 | 964.0 |
| 20260507170321 | 22 | 270 | 4.8 | 19.3 | 0.00 | 0.94 | 0.61 | 83 | 964.1 |
| 20260507165320 | 22 | 205 | 3.2 | 14.5 | 0.00 | 0.97 | 0.61 | 87 | 964.3 |
| 20260507164821 | 21 | 181 | 3.2 | 14.5 | 0.00 | 0.99 | 0.61 | 88 | 964.4 |
| 20260507164321 | 21 | 179 | 3.2 | 17.7 | 0.00 | 0.99 | 0.61 | 88 | 964.6 |
| 20260507163321 | 21 | 131 | 3.2 | 14.5 | 0.00 | 0.99 | 0.61 | 89 | 964.7 |
| 20260507162820 | 21 | 261 | 3.2 | 14.5 | 0.00 | 0.99 | 0.61 | 89 | 964.7 |
| 20260507162322 | 21 | 191 | 1.6 | 11.3 | 0.00 | 0.99 | 0.61 | 90 | 964.8 |
| 20260507161818 | 21 | 298 | 1.6 | 11.3 | 0.00 | 0.99 | 0.61 | 90 | 964.9 |
| 20260507161317 | 20 | 310 | 1.6 | 11.3 | 0.00 | 0.99 | 0.61 | 90 | 964.8 |
| 20260507160816 | 20 | 310 | 1.6 | 11.3 | 0.00 | 0.99 | 0.61 | 91 | 964.7 |
| 20260507160317 | 20 | 310 | 1.6 | 11.3 | 0.00 | 0.99 | 0.61 | 92 | 964.8 |
| 20260507155816 | 20 | 118 | 0.0 | 4.8 | 0.00 | 0.99 | 0.61 | 92 | 964.7 |
| 20260507155317 | 20 | 118 | 0.0 | 4.8 | 0.00 | 0.99 | 0.61 | 92 | 964.7 |
| 20260507154818 | 20 | 130 | 0.0 | 8.0 | 0.00 | 0.99 | 0.61 | 93 | 964.6 |
| 20260507154316 | 20 | 130 | 0.0 | 8.0 | 0.00 | 0.99 | 0.61 | 93 | 964.4 |
| 20260507153816 | 20 | 164 | 0.0 | 6.4 | 0.00 | 0.99 | 0.61 | 93 | 964.6 |
| 20260507153316 | 19 | 164 | 1.6 | 9.7 | 0.00 | 1.02 | 0.61 | 93 | 964.6 |
| 20260507152816 | 19 | 180 | 0.0 | 9.7 | 0.00 | 1.02 | 0.61 | 93 | 964.6 |
| 20260507152315 | 19 | 279 | 0.0 | 6.4 | 0.00 | 1.02 | 0.61 | 92 | 964.8 |
| 20260507151313 | 18 | 189 | 1.6 | 8.0 | 0.00 | 1.04 | 0.61 | 90 | 965.3 |
| 20260507150812 | 18 | 179 | 0.0 | 8.0 | 0.00 | 1.04 | 0.61 | 89 | 965.1 |
| 20260507150310 | 18 | 280 | 0.0 | 3.2 | 0.00 | 1.04 | 0.61 | 88 | 965.0 |
| 20260507145811 | 18 | 280 | 1.6 | 6.4 | 0.00 | 1.04 | 0.61 | 88 | 965.0 |